Regional Weather Roundup
Issued by NWS

Home | Current Version | Previous Version | Text Only | Print | Product List | Glossary Off
Versions: 1 2 3 4 5 6 7 8 9 10 11 12 13 14 15 16 17 18 19 20 21 22 23 24 25 26 27 28 29 30 31 32 33 34 35 36 37 38 39 40 41 42 43 44 45 46 47 48 49 50

000
ASUS45 KCYS 262010
RWRWY

WYOMING REGIONAL WEATHER ROUNDUP
NATIONAL WEATHER SERVICE CHEYENNE WY
100 PM MST THU FEB 26 2015

NOTE:  "FAIR" INDICATES FEW OR NO CLOUDS BELOW 12,000 FEET
WITH NO SIGNIFICANT WEATHER AND/OR OBSTRUCTIONS TO VISIBILITY.

WYZ001-262100-
YELLOWSTONE NATIONAL PARK

CITY           SKY/WX    TMP DP  RH WIND       PRES   REMARKS
LK YELLOWSTONE   N/A     19   4  51 SE5       29.92F WCI  12
W YELLOWSTONE  NOT AVBL

$$
WYZ002>013-054>058-071-098>099-262100-
NORTHERN WYOMING

CITY           SKY/WX    TMP DP  RH WIND       PRES   REMARKS
JACKSON        MOSUNNY   21  10  63 NE3       29.94F
CODY           CLOUDY    12   9  85 NE10      30.16F WCI  -1
GREYBULL       CLOUDY    21   4  47 N13G20    30.23F WCI   9
WORLAND        FLURRIES  17   8  67 NW3       30.21F
SHERIDAN       CLOUDY    11   0  61 CALM      30.32F
BUFFALO        FLURRIES   7  -1  70 N5        30.23F WCI  -2
GILLETTE       CLOUDY     8  -1  66 N5        30.28F WCI   0
HULETT         FAIR       9  -4  56 N3        30.32F
NEWCASTLE      FAIR      14  -4  44 NW16      30.27F WCI  -2

$$
WYZ014>020-022>026-101>103-262100-
CENTRAL WYOMING

CITY           SKY/WX    TMP DP  RH WIND       PRES   REMARKS
BIG PINEY      LGT SNOW  22  13  68 SE3       29.94F
PINEDALE       CLOUDY    23  14  68 E5        29.94F WCI  17
DUBOIS         CLOUDY    12   9  85 SE12G17   29.96S WCI  -2
LANDER         LGT SNOW  15   8  73 NE7       30.09F WCI   5
RIVERTON       CLOUDY    15   6  67 E12       30.11F WCI   2
CASPER         CLOUDY    11   2  67 NE12      30.16F WCI  -3
DOUGLAS        CLOUDY    13   1  59 NE5       30.21F WCI   5

$$
WYZ021-027>030-104>119-262100-
SOUTHERN WYOMING

CITY           SKY/WX    TMP DP  RH WIND       PRES   REMARKS
EVANSTON       LGT SNOW  27  23  85 E9        29.88F VSB 1   WCI  18
FORT BRIDGER   CLOUDY    24  22  90 NE3       29.94F
ROCK SPRINGS   LGT SNOW  21  16  81 E15       29.94F WCI   8
DIXON          FLURRIES  28  20  71 W7        29.96F WCI  21
RAWLINS        CLOUDY    20  10  65 NE16G22   29.98F WCI   6
SARATOGA       MOCLDY    23  14  68 N7        29.95F WCI  15
LARAMIE        NOT AVBL
CHEYENNE       LGT SNOW  12   5  73 E9        30.08F WCI   0
TORRINGTON     CLOUDY    17   5  59 VRB6      30.25F WCI   9
PINE BLUFFS    LGT SNOW  14   9  79 NE7       30.18F WCI   4

$$



USA.gov is the U.S. government's official web portal to all federal, state and local government web resources and services.